AMC-9 (GE-12)

Last updated on Dec. 14, 2017, 12:19 a.m. UTC

1 27820U 03024A   17347.55879365  .00000024  00000-0  00000-0 0  9994
2 27820   0.3962  88.2169 0017850 240.6389 351.2960  0.99030374 53210
UTC
Height (km)
Latitude
Longitude
Inclination
Orbital Period
UTC large
Height (km)
Speed (km/s)
/
Latitude / Longitude
Inclination (degrees)
Orbital Period (minutes)
Azimuth
Elevation
Range (km)
Doppler Factor
iOS Compass Heading
iOS Angle

Next 30 passes for location: Hong Kong

Rise time Rise Azimuth (degrees) Set time Set Azimuth (degrees) Duration Max altitude (degrees)

No matching passes for this satellites